カタリナ彗星

509P/Catalina (2007)

English version
Home page
Updated on August 27, 2025

---------------------------------------------------------------------

・ プロフィール

符号 509P/2007 C2
発見日 2007年2月9日
発見光度 18.7等
発見者 Catalina Sky Survey

・ 軌道要素

                    Epoch = 2007 Sept.17.0 TT
     T = 2007 Sept. 4.63182 TT        Peri. = 179.46439
     e = 0.4621827                    Node  = 276.11807 2000.0
     q = 3.7794410 AU                 Incl. =   8.67490
       a =  7.0273698 AU   n = 0.05290721   P =  18.63 years

・ 光度変化

        m1 = 6.5 + 5 logΔ + 15.0 log r

---------------------------------------------------------------------

軌道要素は、CBET 5588に掲載されたものです。
光度グラフはComet for Windowsで作成したものです。

---------------------------------------------------------------------

Copyright(C) Seiichi Yoshida (comet@aerith.net). All rights reserved.